N8IR-19 Weather Reports


Display with metric or nautical units.
time (UTC)temp
F
wind
direction
speed
MPH
gust
MPH
rain 1hr
in
rain 24hr
in
rain mn
in
humidity
%
barometer
mb
20260510163919 53 68 4.0 6.0 0.00 0.06 0.00 46 999.1
20260510163417 53 90 3.0 5.0 0.00 0.06 0.00 47 998.9
20260510162917 53 68 4.0 7.0 0.00 0.06 0.00 48 999.0
20260510162417 53 68 4.0 5.0 0.00 0.06 0.00 46 998.9
20260510161917 53 68 5.0 7.0 0.00 0.06 0.00 47 998.8
20260510161417 53 68 5.0 7.0 0.00 0.06 0.00 47 998.8
20260510160917 53 90 7.0 8.0 0.00 0.06 0.00 48 998.6
20260510160417 53 90 4.0 5.0 0.00 0.06 0.00 46 998.6
20260510155917 53 68 6.0 8.0 0.00 0.06 0.00 46 998.6
20260510155417 53 45 4.0 5.0 0.00 0.06 0.00 47 998.4
20260510154917 53 45 7.0 10.0 0.00 0.06 0.00 46 998.2
20260510154437 52 45 5.0 7.0 0.00 0.06 0.00 47 998.2
20260510153937 52 45 7.0 9.0 0.00 0.06 0.00 47 998.2
20260510153416 52 45 7.0 9.0 0.00 0.06 0.00 48 998.2
20260510152937 52 68 5.0 9.0 0.00 0.06 0.00 47 998.1
20260510152417 52 68 5.0 9.0 0.00 0.06 0.00 47 998.1
20260510151916 52 68 5.0 8.0 0.00 0.06 0.00 45 998.2
20260510151417 52 68 8.0 11.0 0.00 0.06 0.00 47 998.1
20260510150917 52 45 7.0 10.0 0.00 0.06 0.00 45 998.1
20260510150418 52 68 8.0 10.0 0.00 0.06 0.00 45 998.1
20260510145917 52 68 8.0 10.0 0.00 0.06 0.00 46 997.9
20260510145437 52 45 6.0 9.0 0.00 0.06 0.00 47 997.9
20260510144937 52 45 7.0 10.0 0.00 0.06 0.00 47 997.8
20260510144417 52 45 7.0 10.0 0.00 0.06 0.00 45 997.7
20260510143936 52 68 8.0 11.0 0.00 0.06 0.00 47 997.9
20260510143416 52 45 9.0 11.0 0.00 0.06 0.00 47 997.8
20260510142917 52 45 8.0 10.0 0.00 0.06 0.00 47 997.8
20260510142416 52 45 8.0 12.0 0.00 0.06 0.00 46 997.8
20260510141917 52 45 11.0 12.0 0.00 0.06 0.00 46 997.6
20260510141417 52 45 9.0 12.0 0.00 0.06 0.00 47 997.7
20260510140916 51 45 8.0 12.0 0.00 0.06 0.00 47 997.7
20260510140417 52 68 9.0 10.0 0.00 0.06 0.00 48 997.8
20260510135916 52 68 10.0 12.0 0.00 0.06 0.00 47 997.8
20260510135459 52 45 9.0 11.0 0.00 0.06 0.00 48 997.8
20260510134917 52 45 8.0 10.0 0.00 0.06 0.00 48 997.8
20260510134417 52 45 9.0 13.0 0.00 0.06 0.00 49 997.7
20260510133917 52 45 9.0 11.0 0.00 0.06 0.00 46 997.7
20260510133417 51 45 9.0 11.0 0.00 0.06 0.00 47 997.5
20260510132916 51 68 7.0 10.0 0.00 0.06 0.00 47 997.4
20260510132417 51 68 8.0 10.0 0.00 0.06 0.00 47 997.3
20260510131916 51 68 6.0 9.0 0.00 0.06 0.00 48 997.3
20260510131417 51 45 9.0 12.0 0.00 0.06 0.00 49 997.3
20260510130916 51 45 9.0 11.0 0.00 0.06 0.00 48 997.2
20260510130417 51 45 9.0 12.0 0.00 0.06 0.00 49 997.1
20260510125917 51 23 10.0 12.0 0.00 0.06 0.00 49 997.0
20260510125416 51 45 10.0 16.0 0.00 0.06 0.00 49 996.9
20260510124916 51 68 10.0 13.0 0.00 0.06 0.00 50 996.8
20260510124417 51 23 10.0 12.0 0.00 0.06 0.00 49 996.8
20260510123917 51 23 10.0 14.0 0.00 0.06 0.00 49 996.7
20260510123416 51 23 7.0 10.0 0.00 0.06 0.00 49 996.7
20260510122917 51 23 10.0 15.0 0.00 0.06 0.00 50 996.6
20260510122416 51 23 12.0 15.0 0.00 0.06 0.00 50 996.5
20260510121917 51 23 11.0 16.0 0.00 0.06 0.00 49 996.4
20260510121416 51 23 10.0 13.0 0.00 0.06 0.00 49 996.4
20260510120916 51 23 11.0 18.0 0.00 0.06 0.00 49 996.3
20260510120416 51 45 10.0 14.0 0.00 0.06 0.00 49 996.2
20260510115917 51 45 12.0 17.0 0.00 0.06 0.00 49 996.1
20260510115416 51 23 8.0 11.0 0.00 0.06 0.00 52 996.0
20260510114917 51 45 11.0 13.0 0.00 0.06 0.00 49 995.8
20260510114416 51 23 11.0 14.0 0.00 0.06 0.00 50 995.8
20260510113916 51 45 11.0 13.0 0.00 0.06 0.00 49 995.7
20260510113416 51 23 14.0 17.0 0.00 0.06 0.00 51 995.6
20260510112918 51 23 11.0 15.0 0.00 0.06 0.00 52 995.6
20260510112456 51 45 12.0 15.0 0.00 0.06 0.00 51 995.3
20260510111919 51 23 12.0 16.0 0.00 0.06 0.00 51 995.3
20260510111418 51 23 14.0 18.0 0.00 0.06 0.00 52 995.2
20260510110938 51 23 13.0 16.0 0.00 0.06 0.00 52 995.1
20260510110440 51 23 13.0 19.0 0.00 0.06 0.00 52 995.0
20260510105918 51 23 15.0 19.0 0.00 0.06 0.00 50 994.9
20260510105418 51 23 15.0 20.0 0.00 0.06 0.00 52 994.8
20260510104918 51 23 15.0 20.0 0.00 0.06 0.00 52 994.8
20260510104419 51 23 13.0 18.0 0.00 0.06 0.00 55 994.7
20260510103919 51 23 13.0 19.0 0.00 0.06 0.00 55 994.6
20260510103421 51 0 13.0 15.0 0.00 0.06 0.00 57 994.3
20260510102918 51 23 12.0 15.0 0.00 0.06 0.00 56 994.2
20260510102418 52 23 13.0 14.0 0.00 0.06 0.00 57 994.1
20260510101918 52 23 10.0 15.0 0.00 0.06 0.00 55 993.9
20260510101418 52 23 11.0 13.0 0.00 0.06 0.00 55 993.7
20260510100919 52 45 11.0 15.0 0.00 0.06 0.00 56 993.7
20260510100419 52 23 11.0 16.0 0.00 0.06 0.00 56 993.6
20260510095939 52 45 9.0 13.0 0.00 0.06 0.00 55 993.5
20260510095418 52 45 10.0 13.0 0.00 0.06 0.00 53 993.5
20260510095059 52 45 10.0 13.0 0.00 0.06 0.00 53 993.3
20260510094419 52 45 13.0 17.0 0.00 0.06 0.00 53 993.2
20260510093919 53 45 11.0 14.0 0.00 0.06 0.00 53 993.1
20260510093418 53 45 12.0 16.0 0.00 0.06 0.00 53 993.1
20260510092918 53 45 9.0 13.0 0.00 0.06 0.00 54 993.2
20260510092420 53 45 9.0 11.0 0.00 0.06 0.00 53 993.0
20260510091918 53 23 10.0 16.0 0.00 0.06 0.00 53 993.0
20260510091419 53 23 7.0 11.0 0.00 0.06 0.00 54 993.0
20260510090918 53 45 4.0 5.0 0.00 0.06 0.00 54 992.9
20260510090500 53 23 7.0 10.0 0.00 0.06 0.00 54 992.8
20260510085919 53 23 5.0 8.0 0.00 0.06 0.00 54 992.7
20260510085418 53 23 4.0 7.0 0.00 0.06 0.00 54 992.8
20260510084918 53 23 6.0 8.0 0.00 0.06 0.00 54 992.6
20260510084418 53 23 5.0 7.0 0.00 0.06 0.00 53 992.6
20260510083939 53 23 4.0 7.0 0.00 0.06 0.00 53 992.5
20260510083418 53 45 5.0 8.0 0.00 0.06 0.00 53 992.4
20260510082918 54 45 4.0 6.0 0.00 0.06 0.00 54 992.3
20260510082418 54 23 5.0 8.0 0.00 0.06 0.00 53 992.2
20260510081918 54 23 6.0 8.0 0.00 0.06 0.00 54 992.3
20260510081500 54 23 5.0 9.0 0.00 0.06 0.00 53 992.3
20260510080939 53 45 6.0 9.0 0.00 0.06 0.00 51 992.2
20260510080419 53 45 6.0 7.0 0.00 0.06 0.00 52 992.2
20260510075918 53 45 7.0 9.0 0.00 0.06 0.00 52 991.9
20260510075418 53 45 8.0 9.0 0.00 0.06 0.00 52 991.9
20260510074918 53 45 7.0 9.0 0.00 0.06 0.00 52 991.9
20260510074418 53 45 5.0 7.0 0.00 0.06 0.00 53 991.9
20260510073918 53 23 4.0 6.0 0.00 0.06 0.00 52 991.7
20260510073418 53 45 10.0 12.0 0.00 0.06 0.00 52 991.5
20260510072918 54 45 10.0 12.0 0.00 0.06 0.00 53 991.5
20260510072438 54 45 10.0 13.0 0.00 0.06 0.00 53 991.4
20260510071959 54 45 11.0 13.0 0.00 0.06 0.00 53 991.3
20260510071439 54 45 11.0 13.0 0.00 0.06 0.00 53 991.2
20260510070918 54 45 8.0 10.0 0.00 0.06 0.00 54 991.1
20260510070418 54 45 10.0 13.0 0.00 0.06 0.00 54 991.1
20260510065918 54 45 12.0 14.0 0.00 0.06 0.00 54 991.0
20260510065418 54 45 11.0 13.0 0.00 0.06 0.00 54 991.0
20260510064918 54 45 11.0 14.0 0.00 0.06 0.00 53 990.9
20260510064418 54 45 14.0 16.0 0.00 0.06 0.00 55 990.8
20260510063918 54 45 15.0 17.0 0.00 0.06 0.00 54 990.7
20260510063418 54 45 13.0 16.0 0.00 0.06 0.00 53 990.9
20260510062937 54 45 15.0 17.0 0.00 0.06 0.00 53 990.8
20260510062419 54 45 16.0 17.0 0.00 0.06 0.00 53 990.7
20260510061918 54 45 16.0 17.0 0.00 0.06 0.00 54 990.7
20260510061418 54 45 17.0 20.0 0.00 0.06 0.00 54 990.6
20260510060918 54 45 18.0 20.0 0.00 0.06 0.00 53 990.5
20260510060418 54 45 20.0 23.0 0.00 0.06 0.00 54 990.6
20260510055939 54 45 19.0 23.0 0.00 0.06 0.00 54 990.6
20260510055420 54 45 19.0 21.0 0.00 0.06 0.00 54 990.6
20260510054922 55 45 16.0 22.0 0.00 0.06 0.00 55 990.4
20260510054438 55 45 17.0 20.0 0.00 0.06 0.00 55 990.4
20260510053919 55 45 13.0 16.0 0.00 0.06 0.00 55 990.2
20260510053421 55 45 12.0 15.0 0.00 0.06 0.00 54 990.2
20260510052918 55 45 13.0 16.0 0.00 0.06 0.00 54 990.0
20260510052420 55 23 16.0 19.0 0.00 0.06 0.00 54 989.9
20260510051920 56 23 16.0 23.0 0.00 0.06 0.00 54 989.7
20260510051422 56 45 15.0 23.0 0.00 0.06 0.00 53 989.6
20260510050942 56 23 16.0 25.0 0.00 0.06 0.00 54 989.6
20260510050421 57 23 20.0 25.0 0.00 0.06 0.00 53 989.5
20260510045921 58 23 20.0 25.0 0.00 0.06 0.00 54 989.2
20260510045418 59 23 25.0 29.0 0.01 0.06 0.00 53 989.2
20260510044918 60 0 19.0 26.0 0.01 0.06 0.00 52 988.8
20260510044418 61 338 4.0 7.0 0.03 0.06 0.00 51 988.7
20260510043920 61 270 10.0 14.0 0.03 0.06 0.00 52 988.6
20260510043419 62 270 12.0 15.0 0.03 0.06 0.00 53 988.4
20260510042920 62 270 12.0 15.0 0.03 0.06 0.00 54 988.1
20260510042418 62 270 9.0 11.0 0.03 0.06 0.00 54 988.0
20260510041940 63 270 11.0 14.0 0.03 0.06 0.00 53 988.0
20260510041440 63 248 10.0 12.0 0.03 0.06 0.00 52 987.9
20260510040917 63 270 18.0 25.0 0.03 0.06 0.00 51 987.7
20260510040419 62 225 8.0 10.0 0.03 0.06 0.00 49 987.1
20260510035920 62 225 16.0 20.0 0.03 0.06 0.06 50 986.9
20260510035420 62 225 18.0 21.0 0.02 0.05 0.05 51 986.9
20260510034920 63 225 20.0 26.0 0.02 0.05 0.05 47 987.3
20260510034418 61 248 16.0 20.0 0.00 0.03 0.03 49 987.1
20260510033918 61 225 10.0 15.0 0.00 0.03 0.03 53 987.4
20260510033419 61 225 11.0 14.0 0.00 0.03 0.03 53 987.1
20260510032920 61 225 10.0 12.0 0.00 0.03 0.03 53 987.0
20260510032418 60 225 11.0 12.0 0.00 0.03 0.03 53 986.8
20260510031918 60 225 9.0 11.0 0.00 0.03 0.03 53 986.8
20260510031418 60 225 9.0 12.0 0.00 0.03 0.03 53 986.9
20260510030919 60 203 9.0 12.0 0.00 0.03 0.03 53 986.8
20260510030418 60 225 9.0 11.0 0.00 0.03 0.03 53 986.8
20260510025938 61 225 8.0 10.0 0.00 0.03 0.03 53 986.8
20260510025418 61 225 9.0 11.0 0.00 0.03 0.03 52 986.7
20260510024941 61 225 9.0 10.0 0.00 0.03 0.03 52 986.7
20260510024420 61 203 5.0 8.0 0.00 0.03 0.03 51 986.7
20260510023920 61 203 8.0 12.0 0.00 0.03 0.03 51 986.6
20260510023438 61 203 10.0 12.0 0.00 0.03 0.03 51 986.6
20260510022920 61 225 12.0 14.0 0.00 0.03 0.03 52 986.6
20260510022421 61 225 12.0 14.0 0.00 0.03 0.03 52 986.7
20260510021958 61 225 7.0 9.0 0.00 0.03 0.03 52 986.5
20260510021418 61 225 8.0 9.0 0.00 0.03 0.03 52 986.5
20260510020920 61 225 8.0 9.0 0.00 0.03 0.03 52 986.6
20260510020420 62 225 10.0 13.0 0.00 0.03 0.03 52 986.6
20260510015921 62 248 9.0 11.0 0.00 0.03 0.03 52 986.6
20260510015420 61 225 9.0 11.0 0.00 0.03 0.03 52 986.6
20260510014917 61 225 11.0 12.0 0.00 0.03 0.03 52 986.6
20260510014421 61 225 14.0 17.0 0.00 0.03 0.03 53 986.6
20260510013917 61 225 11.0 14.0 0.00 0.03 0.03 53 986.5
20260510013420 61 225 11.0 12.0 0.00 0.03 0.03 54 986.5
20260510012920 61 225 10.0 12.0 0.00 0.03 0.03 54 986.2
20260510012420 61 225 7.0 9.0 0.00 0.03 0.03 54 986.0
20260510011918 61 225 8.0 9.0 0.00 0.03 0.03 54 986.0
20260510011438 61 203 7.0 8.0 0.00 0.03 0.03 53 986.0
20260510010918 61 203 8.0 9.0 0.00 0.03 0.03 53 985.9
20260510010440 61 203 4.0 6.0 0.00 0.03 0.03 53 985.9
20260510005920 61 203 6.0 8.0 0.00 0.03 0.03 53 985.9
20260510005417 61 203 7.0 8.0 0.00 0.03 0.03 53 985.8
20260510004918 61 225 8.0 10.0 0.00 0.03 0.03 52 985.8
20260510004417 61 225 9.0 10.0 0.00 0.03 0.03 52 985.8
20260510003920 62 225 10.0 12.0 0.00 0.03 0.03 52 985.8
20260510003417 62 225 10.0 12.0 0.00 0.03 0.03 52 985.8
20260510002917 62 225 8.0 10.0 0.00 0.03 0.03 51 985.8
20260510002417 62 225 10.0 12.0 0.00 0.03 0.03 51 985.8
20260510001920 63 225 8.0 10.0 0.00 0.03 0.03 50 985.8
20260510001440 63 225 9.0 11.0 0.00 0.03 0.03 50 985.8
20260510000920 63 225 9.0 12.0 0.00 0.03 0.03 49 985.7
20260510000420 63 225 7.0 10.0 0.00 0.03 0.03 49 985.7
20260509235917 63 225 8.0 11.0 0.00 0.03 0.03 49 985.7
20260509235419 63 225 12.0 14.0 0.00 0.03 0.03 49 985.8
20260509235000 63 225 11.0 12.0 0.00 0.03 0.03 48 985.8
20260509234420 63 225 8.0 11.0 0.00 0.03 0.03 49 985.7
20260509233917 63 225 10.0 12.0 0.00 0.03 0.03 49 985.7
20260509233417 63 248 6.0 8.0 0.00 0.03 0.03 50 985.8
20260509232917 63 248 6.0 8.0 0.00 0.03 0.03 50 985.6
20260509232419 62 225 6.0 8.0 0.00 0.03 0.03 50 985.6
20260509231919 62 225 7.0 9.0 0.01 0.03 0.03 51 985.6
20260509231417 62 248 9.0 11.0 0.01 0.03 0.03 51 985.6
20260509230938 62 225 8.0 11.0 0.01 0.03 0.03 51 985.6
20260509230419 61 225 9.0 12.0 0.01 0.03 0.03 52 985.5
20260509225938 61 225 9.0 11.0 0.02 0.03 0.03 54 985.4
20260509225418 60 225 13.0 14.0 0.03 0.03 0.03 54 985.6
20260509224918 60 225 13.0 16.0 0.03 0.03 0.03 54 985.6
20260509224419 60 225 12.0 15.0 0.03 0.03 0.03 55 985.6
20260509223918 60 225 11.0 14.0 0.03 0.03 0.03 55 985.5
20260509223417 60 225 13.0 18.0 0.03 0.03 0.03 55 985.4
20260509222937 60 248 9.0 10.0 0.03 0.03 0.03 55 985.7
20260509222418 61 225 12.0 17.0 0.03 0.03 0.03 53 985.3
20260509221917 61 248 14.0 16.0 0.02 0.02 0.02 54 985.5
20260509221417 61 248 14.0 16.0 0.02 0.02 0.02 55 985.1
20260509220917 62 248 16.0 17.0 0.02 0.03 0.02 55 985.2
20260509220438 63 270 21.0 27.0 0.02 0.03 0.02 53 985.4
20260509215917 66 270 14.0 19.0 0.01 0.02 0.01 49 985.4
20260509215417 70 270 14.0 20.0 0.00 0.01 0.00 42 985.0
20260509214918 70 248 11.0 15.0 0.00 0.01 0.00 39 983.8
20260509214417 70 225 12.0 17.0 0.00 0.01 0.00 40 983.3
20260509213919 70 225 18.0 23.0 0.00 0.01 0.00 40 983.0
20260509213417 70 248 14.0 17.0 0.00 0.01 0.00 42 983.1
20260509212917 70 225 19.0 22.0 0.00 0.01 0.00 40 982.8
20260509212438 70 225 17.0 21.0 0.00 0.01 0.00 41 983.0
20260509211937 70 225 20.0 27.0 0.00 0.01 0.00 42 982.9
20260509211418 70 225 26.0 32.0 0.00 0.01 0.00 41 982.9
20260509210917 70 225 21.0 30.0 0.00 0.01 0.00 41 982.9
20260509210418 70 225 19.0 29.0 0.00 0.01 0.00 41 982.8
20260509205917 71 225 18.0 27.0 0.00 0.01 0.00 42 982.8
20260509205437 71 203 20.0 29.0 0.00 0.01 0.00 41 982.8
20260509204917 71 225 21.0 28.0 0.00 0.01 0.00 43 983.0
20260509204417 70 225 21.0 29.0 0.00 0.01 0.00 42 983.0
20260509203917 70 203 20.0 26.0 0.00 0.01 0.00 43 983.1
20260509203419 70 225 20.0 32.0 0.00 0.01 0.00 42 983.2
20260509202917 70 225 20.0 29.0 0.00 0.01 0.00 42 983.5
20260509202500 70 225 19.0 24.0 0.00 0.01 0.00 42 983.5
20260509201917 70 225 24.0 27.0 0.00 0.01 0.00 43 983.6
20260509201417 70 225 26.0 32.0 0.00 0.01 0.00 43 983.6
20260509200917 70 225 19.0 23.0 0.00 0.01 0.00 45 983.8
20260509200418 70 225 24.0 31.0 0.00 0.01 0.00 43 983.7
20260509195917 70 203 23.0 30.0 0.00 0.01 0.00 44 983.9
20260509195417 70 225 17.0 27.0 0.00 0.01 0.00 44 983.9
20260509194917 70 225 22.0 28.0 0.00 0.01 0.00 44 984.0
20260509194417 70 225 23.0 30.0 0.00 0.01 0.00 44 984.0
20260509193917 70 225 23.0 30.0 0.00 0.01 0.00 45 984.4
20260509193418 69 225 23.0 27.0 0.00 0.01 0.00 44 984.3
20260509192957 69 203 18.0 36.0 0.00 0.01 0.00 45 984.4
20260509192417 69 225 22.0 30.0 0.00 0.01 0.00 45 984.4
20260509191917 69 225 20.0 32.0 0.00 0.01 0.00 45 984.5
20260509191417 68 225 20.0 26.0 0.00 0.01 0.00 47 984.6
20260509190917 68 225 19.0 23.0 0.00 0.01 0.00 46 984.7
20260509190417 68 225 22.0 27.0 0.00 0.01 0.00 46 984.8
20260509185938 68 225 24.0 31.0 0.00 0.01 0.00 46 984.7
20260509185416 68 225 14.0 20.0 0.00 0.01 0.00 46 984.7
20260509184917 68 225 18.0 23.0 0.00 0.01 0.00 46 984.7
20260509184417 68 225 21.0 28.0 0.00 0.01 0.00 45 984.7
20260509183917 68 203 23.0 27.0 0.00 0.01 0.00 45 984.6
20260509183417 68 225 13.0 19.0 0.00 0.01 0.00 46 984.8
20260509182917 68 203 13.0 25.0 0.00 0.01 0.00 46 984.9
20260509182417 68 225 12.0 16.0 0.00 0.01 0.00 48 985.0
20260509181937 67 180 13.0 21.0 0.00 0.01 0.00 47 985.0
20260509181437 67 225 19.0 24.0 0.00 0.01 0.00 47 985.1
20260509180917 67 203 25.0 32.0 0.00 0.01 0.00 45 985.1
20260509180417 67 225 19.0 23.0 0.00 0.01 0.00 46 985.1
20260509175917 67 203 15.0 28.0 0.00 0.01 0.00 47 985.2
20260509175417 67 225 16.0 21.0 0.00 0.01 0.00 47 985.3
20260509174917 67 225 15.0 21.0 0.00 0.01 0.00 47 985.2
20260509174417 67 225 21.0 28.0 0.00 0.01 0.00 46 985.2
20260509173917 67 248 15.0 18.0 0.00 0.01 0.00 46 985.3
20260509173417 66 225 16.0 22.0 0.00 0.01 0.00 47 985.3
20260509172957 66 225 15.0 20.0 0.00 0.01 0.00 47 985.3
20260509172436 66 225 21.0 26.0 0.00 0.01 0.00 48 985.3
20260509171916 66 203 11.0 16.0 0.00 0.01 0.00 48 985.4
20260509171417 66 180 9.0 16.0 0.00 0.01 0.00 47 985.4
20260509170917 66 225 16.0 20.0 0.00 0.01 0.00 48 985.5
20260509170416 66 225 17.0 21.0 0.00 0.01 0.00 48 985.5
20260509165917 65 203 10.0 15.0 0.00 0.01 0.00 48 985.5
20260509165417 65 203 16.0 22.0 0.00 0.01 0.00 49 985.5
20260509164916 65 203 13.0 23.0 0.00 0.01 0.00 48 985.5
20260509164417 65 225 16.0 22.0 0.00 0.01 0.00 49 985.6